TimeEDT,TemperatureF,Dew PointF,Humidity,Sea Level PressureIn,VisibilityMPH,Wind Direction,Wind SpeedMPH,Gust SpeedMPH,PrecipitationIn,Events,Conditions,WindDirDegrees,DateUTC
12:17 AM,33.8,30.2,87,30.27,1.8,Calm,Calm,-,0.00,Snow,Light Snow,0,2013-10-25 04:17:00
12:27 AM,33.8,30.2,87,30.27,3.0,Calm,Calm,-,0.01,Snow,Light Snow,0,2013-10-25 04:27:00
12:51 AM,33.8,30.2,87,30.27,2.5,Variable,3.5,-,0.01,Snow,Light Snow,0,2013-10-25 04:51:00
12:53 AM,33.1,30.0,89,30.29,2.5,Calm,Calm,-,0.01,Snow,Light Snow,0,2013-10-25 04:53:00
1:05 AM,33.8,30.2,87,30.27,4.0,Variable,3.5,-,0.00,Snow,Light Snow,0,2013-10-25 05:05:00
1:27 AM,33.8,30.2,87,30.28,5.0,Variable,3.5,-,0.00,,Overcast,0,2013-10-25 05:27:00
1:46 AM,33.8,30.2,87,30.28,4.0,Calm,Calm,-,0.00,,Overcast,0,2013-10-25 05:46:00
1:53 AM,33.1,30.9,92,30.30,5.0,Calm,Calm,-,0.00,,Overcast,0,2013-10-25 05:53:00
2:20 AM,33.8,30.2,87,30.28,5.0,West,3.5,-,N/A,,Overcast,260,2013-10-25 06:20:00
2:48 AM,33.8,30.2,87,30.29,5.0,WNW,4.6,-,N/A,,Overcast,290,2013-10-25 06:48:00
2:53 AM,33.1,30.0,89,30.32,5.0,Variable,3.5,-,N/A,,Overcast,0,2013-10-25 06:53:00
3:53 AM,33.1,30.9,92,30.32,6.0,West,4.6,-,N/A,,Overcast,280,2013-10-25 07:53:00
4:08 AM,33.8,30.2,87,30.30,5.0,Variable,3.5,-,N/A,,Overcast,0,2013-10-25 08:08:00
4:26 AM,33.8,30.2,87,30.31,5.0,West,4.6,-,N/A,,Overcast,280,2013-10-25 08:26:00
4:53 AM,33.1,30.9,92,30.33,5.0,Calm,Calm,-,N/A,,Overcast,0,2013-10-25 08:53:00
5:53 AM,32.0,30.0,92,30.36,5.0,Calm,Calm,-,N/A,,Scattered Clouds,0,2013-10-25 09:53:00
6:53 AM,33.1,30.9,92,30.39,6.0,Calm,Calm,-,N/A,,Overcast,0,2013-10-25 10:53:00
7:53 AM,32.0,30.0,92,30.40,5.0,West,3.5,-,N/A,,Overcast,260,2013-10-25 11:53:00
8:53 AM,32.0,30.0,92,30.43,3.0,Variable,3.5,-,N/A,,Clear,0,2013-10-25 12:53:00
9:22 AM,33.8,30.2,87,30.41,4.0,West,4.6,-,N/A,,Partly Cloudy,280,2013-10-25 13:22:00
9:53 AM,34.0,30.9,89,30.45,6.0,Calm,Calm,-,N/A,,Mostly Cloudy,0,2013-10-25 13:53:00
10:53 AM,36.0,30.9,82,30.47,10.0,Calm,Calm,-,N/A,,Mostly Cloudy,0,2013-10-25 14:53:00
11:02 AM,35.6,30.2,81,30.44,10.0,Variable,3.5,-,N/A,,Mostly Cloudy,0,2013-10-25 15:02:00
11:09 AM,37.4,30.2,75,30.44,10.0,Calm,Calm,-,N/A,,Mostly Cloudy,0,2013-10-25 15:09:00
11:30 AM,39.2,32.0,75,30.44,10.0,Calm,Calm,-,N/A,,Mostly Cloudy,0,2013-10-25 15:30:00
11:53 AM,37.9,28.0,68,30.47,10.0,Calm,Calm,-,N/A,,Mostly Cloudy,0,2013-10-25 15:53:00
12:53 PM,45.0,30.9,58,30.45,10.0,Variable,4.6,-,N/A,,Scattered Clouds,0,2013-10-25 16:53:00
1:53 PM,41.0,25.0,53,30.44,10.0,WNW,5.8,-,N/A,,Overcast,300,2013-10-25 17:53:00
2:53 PM,43.0,25.0,49,30.42,10.0,Calm,Calm,-,N/A,,Overcast,0,2013-10-25 18:53:00
3:53 PM,43.0,25.0,49,30.41,10.0,Calm,Calm,-,N/A,,Overcast,0,2013-10-25 19:53:00
4:53 PM,44.1,25.0,47,30.40,10.0,Calm,Calm,-,N/A,,Mostly Cloudy,0,2013-10-25 20:53:00
5:53 PM,42.1,25.0,51,30.39,10.0,Calm,Calm,-,N/A,,Clear,0,2013-10-25 21:53:00
6:53 PM,39.9,23.0,51,30.38,10.0,Calm,Calm,-,N/A,,Clear,0,2013-10-25 22:53:00
7:53 PM,39.0,23.0,53,30.38,10.0,Calm,Calm,-,N/A,,Clear,0,2013-10-25 23:53:00
8:53 PM,37.0,23.0,57,30.38,10.0,Calm,Calm,-,N/A,,Clear,0,2013-10-26 00:53:00
9:53 PM,36.0,25.0,64,30.38,10.0,Calm,Calm,-,N/A,,Clear,0,2013-10-26 01:53:00
10:53 PM,34.0,26.1,73,30.38,10.0,Calm,Calm,-,N/A,,Clear,0,2013-10-26 02:53:00
11:53 PM,34.0,25.0,70,30.35,10.0,South,3.5,-,N/A,,Clear,170,2013-10-26 03:53:00